Weather History for KHAF - June, 2013

Change the Weather History Date:

Sunday, June 30, 2013

  Actual Average (KSFO) Record (KSFO)
Temperature  
Mean Temperature 55 °F 63 °F  
Max Temperature 62 °F 72 °F 92 °F (1996)
Min Temperature 48 °F 55 °F 44 °F (1949)
Degree Days  
Heating Degree Days 10 2  
Month to date heating degree days 104  
Since 1 June heating degree days 105  
Since 1 July heating degree days 2653  
Cooling Degree Days 0 1  
Month to date cooling degree days 21  
Year to date cooling degree days 40  
Since 1 June cooling degree days 21  
Growing Degree Days 5 (Base 50)    
Moisture  
Dew Point 54 °F    
Average Humidity 89    
Maximum Humidity 100    
Minimum Humidity 77    
Precipitation  
Precipitation 0.00 in 0.00 in 0.06 in (1997)
Month to date precipitation 0.11  
Year to date precipitation 13.08  
Sea Level Pressure  
Sea Level Pressure 29.88 in    
Wind  
Wind Speed 4 mph (NW)    
Max Wind Speed 15 mph    
Max Gust Speed 21 mph    
Visibility 6 miles    
Events      
T = Trace of Precipitation, MM = Missing Value Source: NWS Daily Summary

Daily Weather History Graph

Daily Weather History Graph

Search for Another Location

Airport or City:

Trip Planner

Search our weather history database for the weather conditions in past years. The results will help you decide how hot, cold, wet, or windy it might be!

Date:

Astronomy

Jun. 30, 2013 Rise Set
Actual Time 5:52 AM PDT 8:35 PM PDT
Civil Twilight 5:21 AM PDT 9:06 PM PDT
Nautical Twilight 4:42 AM PDT 9:44 PM PDT
Astronomical Twilight 3:58 AM PDT 10:28 PM PDT
Moon 12:47 AM PDT (6/30) 2:00 PM PDT (6/30)
Length of Visible Light 15h 44m
Length of Day
14h 42m
Last Quarter, 44% of the Moon is Illuminated
Jun 30
Last Quarter
Jul 8
New
Jul 15
First Quarter
Jul 22
Full
Jul 29
Last Quarter

Hourly Weather History & Observations

Time (PDT) Temp. Dew Point Humidity Pressure Visibility Wind Dir Wind Speed Gust Speed Precip Events Conditions
12:15 AM 53.6 °F 51.8 °F 94% 29.90 in 5.0 mi Calm Calm - N/A   Clear
12:35 AM 53.6 °F 51.8 °F 94% 29.90 in 5.0 mi Calm Calm - N/A   Mist
12:55 AM 53.6 °F 51.8 °F 94% 29.90 in 6.0 mi Calm Calm - N/A   Partly Cloudy
1:15 AM 53.6 °F 50.0 °F 88% 29.90 in 6.0 mi Calm Calm - N/A   Clear
1:35 AM 53.6 °F 50.0 °F 88% 29.90 in 5.0 mi Calm Calm - N/A   Clear
1:55 AM 51.8 °F 50.0 °F 94% 29.89 in 6.0 mi Calm Calm - N/A   Clear
2:15 AM 51.8 °F 50.0 °F 94% 29.88 in 5.0 mi Calm Calm - N/A   Scattered Clouds
2:35 AM 53.6 °F 50.0 °F 88% 29.88 in 6.0 mi Calm Calm - N/A   Partly Cloudy
2:55 AM 51.8 °F 50.0 °F 94% 29.88 in 6.0 mi Calm Calm - N/A   Clear
3:15 AM 50.0 °F 50.0 °F 100% 29.88 in 5.0 mi Calm Calm - N/A   Partly Cloudy
3:35 AM 50.0 °F 50.0 °F 100% 29.88 in 6.0 mi Calm Calm - N/A   Clear
3:55 AM 50.0 °F 48.2 °F 94% 29.88 in 6.0 mi Calm Calm - N/A   Clear
4:15 AM 50.0 °F 50.0 °F 100% 29.87 in 6.0 mi Calm Calm - N/A   Clear
4:35 AM 50.0 °F 48.2 °F 94% 29.87 in 6.0 mi Calm Calm - N/A   Mist
4:55 AM 50.0 °F 48.2 °F 94% 29.87 in 6.0 mi Calm Calm - N/A   Mist
5:15 AM 48.2 °F 48.2 °F 100% 29.87 in 5.0 mi Calm Calm - N/A   Mist
5:35 AM 50.0 °F 50.0 °F 100% 29.87 in 5.0 mi Calm Calm - N/A   Mist
5:55 AM 51.8 °F 50.0 °F 94% 29.87 in 4.0 mi Calm Calm - N/A   Mist
6:15 AM 50.0 °F 50.0 °F 100% 29.88 in 4.0 mi Calm Calm - N/A   Partly Cloudy
6:35 AM 50.0 °F 50.0 °F 100% 29.88 in 4.0 mi Calm Calm - N/A   Clear
6:55 AM 53.6 °F 51.8 °F 94% 29.89 in 5.0 mi Calm Calm - N/A   Clear
7:15 AM 55.4 °F 53.6 °F 94% 29.89 in 4.0 mi Calm Calm - N/A   Clear
7:35 AM 57.2 °F 55.4 °F 94% 29.89 in 4.0 mi Calm Calm - N/A   Clear
7:55 AM 57.2 °F 55.4 °F 94% 29.89 in 4.0 mi Calm Calm - N/A   Clear
8:15 AM 59.0 °F 55.4 °F 88% 29.89 in 5.0 mi NNW 4.6 mph - N/A   Partly Cloudy
8:35 AM 60.8 °F 55.4 °F 82% 29.90 in 5.0 mi North 9.2 mph - N/A   Haze
8:55 AM 60.8 °F 55.4 °F 82% 29.90 in 5.0 mi NNW 6.9 mph - N/A   Haze
9:15 AM 62.6 °F 55.4 °F 77% 29.90 in 5.0 mi North 9.2 mph - N/A   Haze
9:35 AM 62.6 °F 55.4 °F 77% 29.90 in 5.0 mi NNW 6.9 mph - N/A   Haze
9:55 AM 62.6 °F 55.4 °F 77% 29.90 in 6.0 mi NW 8.1 mph - N/A   Haze
10:15 AM 62.6 °F 57.2 °F 82% 29.90 in 5.0 mi WNW 8.1 mph - N/A   Haze
10:35 AM 62.6 °F 57.2 °F 82% 29.90 in 5.0 mi NW 10.4 mph - N/A   Haze
10:55 AM 62.6 °F 57.2 °F 82% 29.90 in 5.0 mi NW 11.5 mph - N/A   Haze
11:15 AM 62.6 °F 57.2 °F 82% 29.90 in 5.0 mi NW 11.5 mph - N/A   Haze
11:35 AM 60.8 °F 57.2 °F 88% 29.90 in 5.0 mi NW 10.4 mph - N/A   Clear
11:55 AM 60.8 °F 55.4 °F 82% 29.91 in 7.0 mi NW 11.5 mph - N/A   Clear
12:15 PM 60.8 °F 57.2 °F 88% 29.90 in 8.0 mi NW 13.8 mph - N/A   Clear
12:35 PM 62.6 °F 57.2 °F 82% 29.90 in 9.0 mi NW 13.8 mph - N/A   Clear
12:55 PM 62.6 °F 57.2 °F 82% 29.90 in 9.0 mi NW 12.7 mph - N/A   Clear
1:15 PM 60.8 °F 57.2 °F 88% 29.90 in 9.0 mi NNW 15.0 mph - N/A   Clear
1:35 PM 60.8 °F 57.2 °F 88% 29.90 in 8.0 mi NNW 11.5 mph 19.6 mph N/A   Scattered Clouds
1:55 PM 62.6 °F 57.2 °F 82% 29.89 in 7.0 mi North 11.5 mph 17.3 mph N/A   Partly Cloudy
2:15 PM 62.6 °F 57.2 °F 82% 29.89 in 7.0 mi NW 13.8 mph - N/A   Clear
2:35 PM 62.6 °F 57.2 °F 82% 29.88 in 8.0 mi NW 15.0 mph 20.7 mph N/A   Clear
2:55 PM 62.6 °F 57.2 °F 82% 29.88 in 7.0 mi NW 15.0 mph 20.7 mph N/A   Partly Cloudy
3:15 PM 60.8 °F 57.2 °F 88% 29.88 in 9.0 mi NW 13.8 mph - N/A   Partly Cloudy
3:35 PM 60.8 °F 57.2 °F 88% 29.88 in 9.0 mi NW 11.5 mph - N/A   Partly Cloudy
3:55 PM 62.6 °F 57.2 °F 82% 29.87 in 7.0 mi NW 15.0 mph - N/A   Clear
4:15 PM 59.0 °F 55.4 °F 88% 29.88 in 7.0 mi NNW 12.7 mph - N/A   Scattered Clouds
4:35 PM 60.8 °F 57.2 °F 88% 29.87 in 7.0 mi NNW 13.8 mph 20.7 mph N/A   Partly Cloudy
4:55 PM 62.6 °F 55.4 °F 77% 29.86 in 7.0 mi NNW 11.5 mph 17.3 mph N/A   Clear
5:15 PM 62.6 °F 57.2 °F 82% 29.86 in 7.0 mi NNW 11.5 mph - N/A   Clear
5:35 PM 62.6 °F 57.2 °F 82% 29.86 in 9.0 mi NNW 12.7 mph 17.3 mph N/A   Partly Cloudy
5:55 PM 62.6 °F 55.4 °F 77% 29.86 in 9.0 mi NW 10.4 mph - N/A   Clear
6:15 PM 62.6 °F 57.2 °F 82% 29.85 in 8.0 mi NNW 10.4 mph - N/A   Clear
6:35 PM 62.6 °F 55.4 °F 77% 29.85 in 7.0 mi NNW 10.4 mph - N/A   Clear
6:55 PM 62.6 °F 55.4 °F 77% 29.84 in 7.0 mi NNW 10.4 mph - N/A   Partly Cloudy
7:15 PM 60.8 °F 55.4 °F 82% 29.85 in 7.0 mi NNW 10.4 mph - N/A   Scattered Clouds
7:35 PM 59.0 °F 55.4 °F 88% 29.84 in 6.0 mi NW 11.5 mph - N/A   Scattered Clouds
7:55 PM 59.0 °F 55.4 °F 88% 29.84 in 7.0 mi NNW 6.9 mph - N/A   Mostly Cloudy
8:15 PM 59.0 °F 55.4 °F 88% 29.84 in 6.0 mi NW 6.9 mph - N/A   Scattered Clouds
8:35 PM 57.2 °F 55.4 °F 94% 29.84 in 5.0 mi WNW 6.9 mph - N/A   Clear
8:55 PM 57.2 °F 55.4 °F 94% 29.84 in 4.0 mi WNW 3.5 mph - N/A   Clear
9:15 PM 57.2 °F 55.4 °F 94% 29.85 in 5.0 mi WNW 3.5 mph - N/A   Mist
9:35 PM 57.2 °F 55.4 °F 94% 29.86 in 5.0 mi Calm Calm - N/A   Mostly Cloudy
9:55 PM 57.2 °F 55.4 °F 94% 29.86 in 5.0 mi Calm Calm - N/A   Overcast
10:15 PM 55.4 °F 55.4 °F 100% 29.87 in 5.0 mi Calm Calm - N/A   Overcast
10:35 PM 55.4 °F 53.6 °F 94% 29.87 in 6.0 mi Calm Calm - N/A   Overcast
10:55 PM 55.4 °F 53.6 °F 94% 29.87 in 6.0 mi Calm Calm - N/A   Overcast
11:15 PM 55.4 °F 53.6 °F 94% 29.87 in 6.0 mi Calm Calm - N/A   Overcast
11:35 PM 57.2 °F 55.4 °F 94% 29.87 in 5.0 mi NNW 6.9 mph - N/A   Overcast
11:55 PM 57.2 °F 55.4 °F 94% 29.86 in 6.0 mi North 10.4 mph 17.3 mph N/A   Overcast